Weather History for Crockett, TX

Change the Weather History Date:

Wednesday, January 1, 2014

  Actual Average (KLFK) Record (KLFK)
Temperature  
Mean Temperature 50 °F 49 °F  
Max Temperature 66 °F 59 °F 82 °F (2006)
Min Temperature 35 °F 38 °F 15 °F (1928)
Degree Days  
Heating Degree Days 14 17  
Month to date heating degree days 17  
Since 1 July heating degree days 795  
Cooling Degree Days 0 0  
Month to date cooling degree days 0  
Year to date cooling degree days 0  
Moisture  
Dew Point 47 °F    
Average Humidity 84    
Maximum Humidity 100    
Minimum Humidity 64    
Precipitation  
Precipitation 0.00 in 0.13 in 2.07 in (1999)
Month to date precipitation 0.13  
Year to date precipitation 0.13  
Snow  
Snow 0.00 in - - ()
Month to date snowfall  
Since 1 July snowfall  
Snow Depth -    
Sea Level Pressure  
Sea Level Pressure 30.14 in    
Wind  
Wind Speed 2 mph (SSW)    
Max Wind Speed 14 mph    
Max Gust Speed -    
Visibility 8 miles    
Events      
T = Trace of Precipitation, MM = Missing Value Source: NWS Daily Summary

Daily Weather History Graph

Daily Weather History Graph

Search for Another Location

Airport:

Trip Planner

Search our weather history database for the weather conditions in past years. The results will help you decide how hot, cold, wet, or windy it might be!

Date:

Astronomy

Jan. 01, 2014 Rise Set
Actual Time 7:20 AM CST 5:30 PM CST
Civil Twilight 6:53 AM CST 5:56 PM CST
Nautical Twilight 6:23 AM CST 6:26 PM CST
Astronomical Twilight 5:54 AM CST 6:56 PM CST
Moon 7:15 AM CST (1/1) 6:11 PM CST (1/1)
Length of Visible Light 11h 02m
Length of Day
10h 09m
New Moon, 0% of the Moon is Illuminated
Jan 1
New Moon
Jan 7
First Quarter
Jan 15
Full
Jan 23
Last Quarter
Jan 30
New

Hourly Weather History & Observations

Time (CST) Temp. Dew Point Humidity Pressure Visibility Wind Dir Wind Speed Gust Speed Precip Events Conditions
12:15 AM 39.2 °F 35.6 °F 87% 30.30 in 10.0 mi Calm Calm - N/A   Clear
12:35 AM 39.2 °F 35.6 °F 87% 30.29 in 10.0 mi Calm Calm - N/A   Clear
12:55 AM 39.2 °F 35.6 °F 87% 30.27 in 10.0 mi Calm Calm - N/A   Clear
1:15 AM 39.2 °F 35.6 °F 87% 30.26 in 10.0 mi Calm Calm - N/A   Clear
1:35 AM 37.4 °F 35.6 °F 93% 30.26 in 10.0 mi Calm Calm - N/A   Clear
1:55 AM 35.6 °F 33.8 °F 93% 30.26 in 9.0 mi Calm Calm - N/A   Clear
2:15 AM 37.4 °F 35.6 °F 93% 30.26 in 10.0 mi Calm Calm - N/A   Clear
2:35 AM 35.6 °F 33.8 °F 93% 30.26 in 8.0 mi Calm Calm - N/A   Clear
2:55 AM 35.6 °F 35.6 °F 100% 30.25 in 8.0 mi Calm Calm - N/A   Clear
3:15 AM 37.4 °F 35.6 °F 93% 30.25 in 8.0 mi Calm Calm - N/A   Clear
3:35 AM 37.4 °F 35.6 °F 93% 30.25 in 9.0 mi Calm Calm - N/A   Clear
3:55 AM 37.4 °F 35.6 °F 93% 30.24 in 7.0 mi Calm Calm - N/A   Partly Cloudy
4:15 AM 35.6 °F 35.6 °F 100% 30.23 in 7.0 mi Calm Calm - N/A   Scattered Clouds
4:35 AM 37.4 °F 37.4 °F 100% 30.22 in 7.0 mi Calm Calm - N/A   Scattered Clouds
4:55 AM 37.4 °F 37.4 °F 100% 30.22 in 7.0 mi Calm Calm - N/A   Clear
5:15 AM 37.4 °F 35.6 °F 93% 30.22 in 6.0 mi Calm Calm - N/A   Clear
5:35 AM 37.4 °F 35.6 °F 93% 30.22 in 5.0 mi Calm Calm - N/A   Clear
5:55 AM 37.4 °F 37.4 °F 100% 30.23 in 5.0 mi Calm Calm - N/A   Clear
6:15 AM 37.4 °F 37.4 °F 100% 30.22 in 5.0 mi Calm Calm - N/A   Clear
6:35 AM 39.2 °F 37.4 °F 93% 30.22 in 6.0 mi Calm Calm - N/A   Clear
6:55 AM 39.2 °F 37.4 °F 93% 30.21 in 6.0 mi Calm Calm - N/A   Clear
7:15 AM 39.2 °F 37.4 °F 93% 30.21 in 7.0 mi Calm Calm - N/A   Partly Cloudy
7:35 AM 39.2 °F 37.4 °F 93% 30.21 in 5.0 mi Calm Calm - N/A   Scattered Clouds
7:55 AM 41.0 °F 39.2 °F 93% 30.21 in 5.0 mi Calm Calm - N/A   Scattered Clouds
8:15 AM 42.8 °F 39.2 °F 87% 30.21 in 5.0 mi Calm Calm - N/A   Scattered Clouds
8:35 AM 42.8 °F 41.0 °F 93% 30.21 in 5.0 mi Calm Calm - N/A   Scattered Clouds
8:55 AM 44.6 °F 41.0 °F 87% 30.21 in 5.0 mi Calm Calm - N/A   Scattered Clouds
9:15 AM 46.4 °F 42.8 °F 87% 30.21 in 5.0 mi Calm Calm - N/A   Scattered Clouds
9:35 AM 48.2 °F 44.6 °F 87% 30.21 in 5.0 mi SSW 3.5 mph - N/A   Partly Cloudy
9:55 AM 50.0 °F 44.6 °F 82% 30.22 in 5.0 mi South 6.9 mph - N/A   Haze
10:15 AM 50.0 °F 44.6 °F 82% 30.21 in 7.0 mi SSW 5.8 mph - N/A   Mostly Cloudy
10:35 AM 51.8 °F 46.4 °F 82% 30.20 in 6.0 mi Calm Calm - N/A   Haze
10:55 AM 53.6 °F 48.2 °F 82% 30.20 in 6.0 mi SSW 3.5 mph - N/A   Haze
11:15 AM 55.4 °F 50.0 °F 82% 30.18 in 5.0 mi South 6.9 mph - N/A   Haze
11:35 AM 57.2 °F 50.0 °F 77% 30.17 in 8.0 mi SSW 9.2 mph - N/A   Partly Cloudy
11:55 AM 57.2 °F 51.8 °F 82% 30.16 in 9.0 mi SSW 5.8 mph - N/A   Scattered Clouds
12:15 PM 59.0 °F 51.8 °F 77% 30.14 in 8.0 mi Calm Calm - N/A   Partly Cloudy
12:35 PM 59.0 °F 51.8 °F 77% 30.12 in 8.0 mi South 8.1 mph - N/A   Partly Cloudy
12:55 PM 60.8 °F 51.8 °F 72% 30.10 in 9.0 mi South 8.1 mph - N/A   Scattered Clouds
1:15 PM 62.6 °F 51.8 °F 68% 30.08 in 9.0 mi South 9.2 mph - N/A   Scattered Clouds
1:35 PM 64.4 °F 53.6 °F 68% 30.08 in 9.0 mi SSW 10.4 mph - N/A   Scattered Clouds
1:55 PM 62.6 °F 53.6 °F 72% 30.07 in 10.0 mi South 10.4 mph - N/A   Mostly Cloudy
2:15 PM 64.4 °F 53.6 °F 68% 30.06 in 9.0 mi South 9.2 mph - N/A   Scattered Clouds
2:35 PM 66.2 °F 53.6 °F 64% 30.06 in 10.0 mi SSW 13.8 mph - N/A   Partly Cloudy
2:55 PM 64.4 °F 53.6 °F 68% 30.05 in 10.0 mi South 13.8 mph - N/A   Scattered Clouds
3:15 PM 64.4 °F 53.6 °F 68% 30.05 in 10.0 mi South 9.2 mph - N/A   Partly Cloudy
3:35 PM 64.4 °F 53.6 °F 68% 30.04 in 10.0 mi South 9.2 mph - N/A   Scattered Clouds
3:55 PM 64.4 °F 53.6 °F 68% 30.04 in 9.0 mi South 10.4 mph - N/A   Mostly Cloudy
4:15 PM 62.6 °F 53.6 °F 72% 30.04 in 9.0 mi South 8.1 mph - N/A   Mostly Cloudy
4:35 PM 62.6 °F 53.6 °F 72% 30.04 in 10.0 mi South 8.1 mph - N/A   Scattered Clouds
4:55 PM 62.6 °F 53.6 °F 72% 30.04 in 9.0 mi South 5.8 mph - N/A   Mostly Cloudy
5:15 PM 62.6 °F 53.6 °F 72% 30.04 in 10.0 mi South 6.9 mph - N/A   Mostly Cloudy
5:35 PM 62.6 °F 53.6 °F 72% 30.04 in 9.0 mi South 5.8 mph - N/A   Mostly Cloudy
5:55 PM 60.8 °F 55.4 °F 82% 30.04 in 10.0 mi South 5.8 mph - N/A   Overcast
6:15 PM 60.8 °F 55.4 °F 82% 30.04 in 10.0 mi South 5.8 mph - N/A   Overcast
6:35 PM 60.8 °F 55.4 °F 82% 30.04 in 10.0 mi South 5.8 mph - N/A   Overcast
6:55 PM 60.8 °F 55.4 °F 82% 30.04 in 10.0 mi South 5.8 mph - N/A   Mostly Cloudy
7:15 PM 60.8 °F 55.4 °F 82% 30.05 in 10.0 mi South 8.1 mph - N/A   Overcast
7:35 PM 60.8 °F 55.4 °F 82% 30.04 in 10.0 mi South 8.1 mph - N/A   Overcast
7:55 PM 60.8 °F 55.4 °F 82% 30.05 in 10.0 mi SSW 5.8 mph - N/A   Overcast
8:15 PM 62.6 °F 55.4 °F 77% 30.05 in 10.0 mi South 6.9 mph - N/A   Overcast
8:35 PM 60.8 °F 55.4 °F 82% 30.05 in 10.0 mi South 5.8 mph - N/A   Overcast
8:55 PM 60.8 °F 55.4 °F 82% 30.06 in 10.0 mi South 4.6 mph - N/A   Mostly Cloudy
9:15 PM 60.8 °F 55.4 °F 82% 30.06 in 10.0 mi Calm Calm - N/A   Overcast
9:35 PM 60.8 °F 55.4 °F 82% 30.07 in 10.0 mi Calm Calm - N/A   Overcast
9:55 PM 60.8 °F 55.4 °F 82% 30.07 in 10.0 mi Calm Calm - N/A   Overcast
10:15 PM 60.8 °F 55.4 °F 82% 30.07 in 10.0 mi South 4.6 mph - N/A   Overcast
10:35 PM 60.8 °F 55.4 °F 82% 30.08 in 10.0 mi Calm Calm - N/A   Overcast
10:55 PM 60.8 °F 55.4 °F 82% 30.08 in 10.0 mi Calm Calm - N/A   Overcast
11:15 PM 60.8 °F 55.4 °F 82% 30.08 in 10.0 mi Calm Calm - N/A   Overcast
11:35 PM 59.0 °F 55.4 °F 88% 30.09 in 9.0 mi West 3.5 mph - N/A   Overcast
11:55 PM 59.0 °F 55.4 °F 88% 30.10 in 10.0 mi WSW 4.6 mph - N/A   Overcast